Time,TemperatureF,DewpointF,PressureIn,WindDirection,WindDirectionDegrees,WindSpeedMPH,WindSpeedGustMPH,Humidity,HourlyPrecipIn,Conditions,Clouds,dailyrainin,SoftwareType,DateUTC
2013-03-11 00:02:00,33.0,29.0,29.73,East,84,4.0,17.0,84,0.00,,,0.00,,2013-03-11 00:02:00,
2013-03-11 00:12:00,33.0,29.0,29.73,East,84,4.0,17.0,84,0.00,,,0.00,,2013-03-11 00:12:00,
2013-03-11 00:23:00,33.0,29.0,29.72,East,81,4.0,13.0,84,0.00,,,0.00,,2013-03-11 00:23:00,
2013-03-11 00:33:00,33.0,29.0,29.72,East,81,4.0,13.0,84,0.00,,,0.00,,2013-03-11 00:33:00,
2013-03-11 00:43:00,33.0,29.0,29.72,East,81,4.0,13.0,84,0.00,,,0.00,,2013-03-11 00:43:00,
2013-03-11 00:52:00,32.0,28.0,29.72,East,90,4.0,12.0,85,0.00,,,0.00,,2013-03-11 00:52:00,
2013-03-11 01:02:00,32.0,28.0,29.72,East,81,5.0,16.0,85,0.00,,,0.00,,2013-03-11 01:02:00,
2013-03-11 01:12:00,32.0,28.0,29.72,East,81,5.0,16.0,85,0.00,,,0.00,,2013-03-11 01:12:00,
2013-03-11 01:22:00,32.0,28.0,29.72,East,79,5.0,13.0,84,0.00,,,0.00,,2013-03-11 01:22:00,
2013-03-11 01:32:00,32.0,28.0,29.72,East,79,5.0,13.0,84,0.00,,,0.00,,2013-03-11 01:32:00,
2013-03-11 01:42:00,32.0,28.0,29.72,East,79,5.0,13.0,84,0.00,,,0.00,,2013-03-11 01:42:00,
2013-03-11 01:53:00,32.0,28.0,29.72,East,79,5.0,13.0,84,0.00,,,0.00,,2013-03-11 01:53:00,
2013-03-11 02:01:00,32.0,28.0,29.72,East,84,5.0,15.0,85,0.00,,,0.00,,2013-03-11 02:01:00,
2013-03-11 02:12:00,32.0,28.0,29.72,East,84,5.0,15.0,85,0.00,,,0.00,,2013-03-11 02:12:00,
2013-03-11 02:22:00,32.0,28.0,29.72,East,84,5.0,15.0,85,0.00,,,0.00,,2013-03-11 02:22:00,
2013-03-11 02:32:00,32.0,28.0,29.72,East,83,5.0,18.0,85,0.00,,,0.00,,2013-03-11 02:32:00,
2013-03-11 02:41:00,32.0,28.0,29.72,East,83,5.0,18.0,85,0.00,,,0.00,,2013-03-11 02:41:00,
2013-03-11 02:52:00,31.0,27.0,29.72,East,82,6.0,17.0,84,0.00,,,0.00,,2013-03-11 02:52:00,
2013-03-11 03:02:00,31.0,26.0,29.72,ENE,76,6.0,19.0,83,0.00,,,0.00,,2013-03-11 03:02:00,
2013-03-11 03:12:00,31.0,26.0,29.72,ENE,76,6.0,19.0,83,0.00,,,0.00,,2013-03-11 03:12:00,
2013-03-11 03:21:00,31.0,26.0,29.72,ENE,76,6.0,19.0,83,0.00,,,0.00,,2013-03-11 03:21:00,
2013-03-11 03:32:00,31.0,26.0,29.72,East,83,5.0,13.0,83,0.00,,,0.00,,2013-03-11 03:32:00,
2013-03-11 03:42:00,31.0,26.0,29.72,East,83,5.0,13.0,83,0.00,,,0.00,,2013-03-11 03:42:00,
2013-03-11 03:52:00,31.0,26.0,29.71,East,79,6.0,14.0,83,0.00,,,0.00,,2013-03-11 03:52:00,
2013-03-11 04:02:00,31.0,26.0,29.71,East,79,6.0,14.0,83,0.00,,,0.00,,2013-03-11 04:02:00,
2013-03-11 04:11:00,31.0,26.0,29.71,East,79,6.0,14.0,83,0.00,,,0.00,,2013-03-11 04:11:00,
2013-03-11 04:22:00,31.0,26.0,29.71,East,85,5.0,14.0,82,0.00,,,0.00,,2013-03-11 04:22:00,
2013-03-11 04:32:00,30.0,25.0,29.72,East,80,5.0,13.0,83,0.00,,,0.00,,2013-03-11 04:32:00,
2013-03-11 04:42:00,30.0,25.0,29.72,East,80,5.0,13.0,83,0.00,,,0.00,,2013-03-11 04:42:00,
2013-03-11 04:52:00,30.0,26.0,29.72,East,80,3.0,11.0,84,0.00,,,0.00,,2013-03-11 04:52:00,
2013-03-11 05:02:00,30.0,26.0,29.72,East,80,3.0,11.0,84,0.00,,,0.00,,2013-03-11 05:02:00,
2013-03-11 05:11:00,30.0,26.0,29.72,East,80,3.0,11.0,84,0.00,,,0.00,,2013-03-11 05:11:00,
2013-03-11 05:21:00,30.0,26.0,29.72,East,87,4.0,12.0,84,0.00,,,0.00,,2013-03-11 05:21:00,
2013-03-11 05:31:00,30.0,25.0,29.71,East,80,6.0,19.0,83,0.00,,,0.00,,2013-03-11 05:31:00,
2013-03-11 05:42:00,30.0,25.0,29.71,East,80,6.0,19.0,83,0.00,,,0.00,,2013-03-11 05:42:00,
2013-03-11 05:51:00,30.0,25.0,29.71,East,80,6.0,19.0,83,0.00,,,0.00,,2013-03-11 05:51:00,
2013-03-11 06:02:00,30.0,25.0,29.72,East,86,5.0,15.0,83,0.00,,,0.00,,2013-03-11 06:02:00,
2013-03-11 06:11:00,30.0,25.0,29.72,East,86,5.0,15.0,83,0.00,,,0.00,,2013-03-11 06:11:00,
2013-03-11 06:22:00,30.0,25.0,29.72,East,82,5.0,13.0,82,0.00,,,0.00,,2013-03-11 06:22:00,
2013-03-11 06:32:00,30.0,25.0,29.72,ENE,73,5.0,17.0,81,0.00,,,0.00,,2013-03-11 06:32:00,
2013-03-11 06:42:00,30.0,25.0,29.72,ENE,73,5.0,17.0,81,0.00,,,0.00,,2013-03-11 06:42:00,
2013-03-11 06:52:00,30.0,25.0,29.72,ENE,73,5.0,17.0,81,0.00,,,0.00,,2013-03-11 06:52:00,
2013-03-11 07:02:00,30.0,25.0,29.72,East,80,6.0,16.0,82,0.00,,,0.00,,2013-03-11 07:02:00,
2013-03-11 07:11:00,30.0,25.0,29.72,ENE,75,7.0,17.0,82,0.00,,,0.00,,2013-03-11 07:11:00,
2013-03-11 07:21:00,30.0,25.0,29.72,ENE,75,7.0,17.0,82,0.00,,,0.00,,2013-03-11 07:21:00,
2013-03-11 07:32:00,30.0,25.0,29.72,ENE,75,7.0,17.0,82,0.00,,,0.00,,2013-03-11 07:32:00,
2013-03-11 07:42:00,30.0,25.0,29.72,ENE,75,7.0,17.0,82,0.00,,,0.00,,2013-03-11 07:42:00,
2013-03-11 07:52:00,30.0,25.0,29.72,East,87,7.0,18.0,81,0.00,,,0.00,,2013-03-11 07:52:00,
2013-03-11 08:02:00,30.0,25.0,29.72,East,86,7.0,16.0,80,0.00,,,0.00,,2013-03-11 08:02:00,
2013-03-11 08:12:00,30.0,25.0,29.72,East,86,7.0,16.0,80,0.00,,,0.00,,2013-03-11 08:12:00,
2013-03-11 08:21:00,31.0,25.0,29.73,East,88,4.0,11.0,77,0.00,,,0.00,,2013-03-11 08:21:00,
2013-03-11 08:32:00,31.0,25.0,29.73,East,88,4.0,11.0,77,0.00,,,0.00,,2013-03-11 08:32:00,
2013-03-11 08:41:00,31.0,25.0,29.73,East,88,4.0,11.0,77,0.00,,,0.00,,2013-03-11 08:41:00,
2013-03-11 08:52:00,31.0,24.0,29.73,East,87,6.0,14.0,75,0.00,,,0.00,,2013-03-11 08:52:00,
2013-03-11 09:01:00,31.0,24.0,29.73,ENE,72,6.0,20.0,75,0.00,,,0.00,,2013-03-11 09:01:00,
2013-03-11 09:12:00,31.0,24.0,29.73,ENE,72,6.0,20.0,75,0.00,,,0.00,,2013-03-11 09:12:00,
2013-03-11 09:22:00,31.0,24.0,29.73,ENE,72,6.0,20.0,75,0.00,,,0.00,,2013-03-11 09:22:00,
2013-03-11 09:32:00,31.0,24.0,29.73,ENE,72,6.0,20.0,75,0.00,,,0.00,,2013-03-11 09:32:00,
2013-03-11 09:41:00,31.0,24.0,29.73,ENE,72,6.0,20.0,75,0.00,,,0.00,,2013-03-11 09:41:00,
2013-03-11 09:52:00,31.0,23.0,29.74,East,85,6.0,15.0,73,0.00,,,0.00,,2013-03-11 09:52:00,
2013-03-11 10:02:00,31.0,23.0,29.74,East,88,8.0,19.0,72,0.00,,,0.00,,2013-03-11 10:02:00,
2013-03-11 10:12:00,31.0,23.0,29.74,East,88,8.0,19.0,72,0.00,,,0.00,,2013-03-11 10:12:00,
2013-03-11 10:21:00,31.0,23.0,29.74,East,88,8.0,19.0,72,0.00,,,0.00,,2013-03-11 10:21:00,
2013-03-11 10:32:00,31.0,23.0,29.74,East,90,5.0,17.0,72,0.00,,,0.00,,2013-03-11 10:32:00,
2013-03-11 10:41:00,31.0,23.0,29.74,East,90,5.0,17.0,72,0.00,,,0.00,,2013-03-11 10:41:00,
2013-03-11 10:52:00,31.0,23.0,29.75,East,84,7.0,17.0,73,0.00,,,0.00,,2013-03-11 10:52:00,
2013-03-11 11:02:00,31.0,23.0,29.75,East,84,7.0,17.0,73,0.00,,,0.00,,2013-03-11 11:02:00,
2013-03-11 11:11:00,31.0,23.0,29.75,East,84,7.0,17.0,73,0.00,,,0.00,,2013-03-11 11:11:00,
2013-03-11 11:21:00,30.0,24.0,29.75,East,90,5.0,18.0,78,0.00,,,0.00,,2013-03-11 11:21:00,
2013-03-11 11:32:00,31.0,25.0,29.75,East,84,4.0,11.0,79,0.00,,,0.00,,2013-03-11 11:32:00,
2013-03-11 11:42:00,31.0,25.0,29.75,East,84,4.0,11.0,79,0.00,,,0.00,,2013-03-11 11:42:00,
2013-03-11 11:52:00,31.0,23.0,29.75,East,84,7.0,19.0,72,0.00,,,0.00,,2013-03-11 11:52:00,
2013-03-11 12:02:00,31.0,23.0,29.75,East,84,7.0,19.0,72,0.00,,,0.00,,2013-03-11 12:02:00,
2013-03-11 12:11:00,31.0,23.0,29.75,East,84,7.0,19.0,72,0.00,,,0.00,,2013-03-11 12:11:00,
2013-03-11 12:22:00,32.0,24.0,29.75,East,89,6.0,18.0,71,0.00,,,0.00,,2013-03-11 12:22:00,
2013-03-11 12:32:00,32.0,23.0,29.74,East,91,7.0,22.0,70,0.00,,,0.00,,2013-03-11 12:32:00,
2013-03-11 12:42:00,32.0,23.0,29.74,East,91,7.0,22.0,70,0.00,,,0.00,,2013-03-11 12:42:00,
2013-03-11 12:52:00,32.0,23.0,29.74,East,91,7.0,22.0,70,0.00,,,0.00,,2013-03-11 12:52:00,
2013-03-11 13:02:00,31.0,23.0,29.75,East,91,7.0,19.0,73,0.00,,,0.00,,2013-03-11 13:02:00,
2013-03-11 13:11:00,31.0,23.0,29.75,East,91,7.0,19.0,73,0.00,,,0.00,,2013-03-11 13:11:00,
2013-03-11 13:22:00,32.0,23.0,29.74,East,90,6.0,17.0,70,0.00,,,0.00,,2013-03-11 13:22:00,
2013-03-11 13:32:00,32.0,23.0,29.74,ENE,77,6.0,20.0,69,0.00,,,0.00,,2013-03-11 13:32:00,
2013-03-11 13:42:00,32.0,23.0,29.74,ENE,77,6.0,20.0,69,0.00,,,0.00,,2013-03-11 13:42:00,
2013-03-11 13:52:00,32.0,23.0,29.74,ENE,77,6.0,20.0,69,0.00,,,0.00,,2013-03-11 13:52:00,
2013-03-11 14:02:00,32.0,24.0,29.74,East,85,6.0,15.0,72,0.00,,,0.00,,2013-03-11 14:02:00,
2013-03-11 14:12:00,32.0,24.0,29.74,East,85,6.0,15.0,72,0.00,,,0.00,,2013-03-11 14:12:00,
2013-03-11 14:22:00,32.0,22.0,29.74,East,90,6.0,17.0,65,0.00,,,0.00,,2013-03-11 14:22:00,
2013-03-11 14:32:00,32.0,22.0,29.74,East,90,6.0,17.0,65,0.00,,,0.00,,2013-03-11 14:32:00,
2013-03-11 14:42:00,32.0,22.0,29.74,East,90,6.0,17.0,65,0.00,,,0.00,,2013-03-11 14:42:00,
2013-03-11 14:52:00,32.0,20.0,29.73,East,87,5.0,20.0,62,0.00,,,0.00,,2013-03-11 14:52:00,
2013-03-11 15:02:00,32.0,19.0,29.73,East,84,7.0,17.0,58,0.00,,,0.00,,2013-03-11 15:02:00,
2013-03-11 15:12:00,32.0,19.0,29.73,East,84,7.0,17.0,58,0.00,,,0.00,,2013-03-11 15:12:00,
2013-03-11 15:22:00,31.0,22.0,29.73,East,84,7.0,21.0,68,0.00,,,0.00,,2013-03-11 15:22:00,
2013-03-11 15:32:00,31.0,22.0,29.73,East,84,7.0,21.0,68,0.00,,,0.00,,2013-03-11 15:32:00,
2013-03-11 15:42:00,31.0,22.0,29.73,East,84,7.0,21.0,68,0.00,,,0.00,,2013-03-11 15:42:00,
2013-03-11 15:53:00,31.0,22.0,29.72,ENE,78,6.0,19.0,68,0.00,,,0.00,,2013-03-11 15:53:00,
2013-03-11 16:01:00,31.0,22.0,29.72,ENE,76,6.0,22.0,68,0.00,,,0.00,,2013-03-11 16:01:00,
2013-03-11 16:12:00,31.0,22.0,29.72,ENE,76,6.0,22.0,68,0.00,,,0.00,,2013-03-11 16:12:00,
2013-03-11 16:22:00,31.0,22.0,29.72,ENE,76,6.0,22.0,68,0.00,,,0.00,,2013-03-11 16:22:00,
2013-03-11 16:32:00,31.0,19.0,29.72,East,87,8.0,21.0,61,0.00,,,0.00,,2013-03-11 16:32:00,
2013-03-11 16:42:00,31.0,19.0,29.72,East,87,8.0,21.0,61,0.00,,,0.00,,2013-03-11 16:42:00,
2013-03-11 16:52:00,31.0,19.0,29.72,East,81,6.0,17.0,61,0.00,,,0.00,,2013-03-11 16:52:00,
2013-03-11 17:02:00,31.0,20.0,29.72,East,90,7.0,20.0,63,0.00,,,0.00,,2013-03-11 17:02:00,
2013-03-11 17:13:00,31.0,20.0,29.72,East,90,7.0,20.0,63,0.00,,,0.00,,2013-03-11 17:13:00,
2013-03-11 17:23:00,31.0,20.0,29.72,East,90,7.0,20.0,63,0.00,,,0.00,,2013-03-11 17:23:00,
2013-03-11 17:33:00,31.0,21.0,29.72,ENE,77,7.0,18.0,66,0.00,,,0.00,,2013-03-11 17:33:00,
2013-03-11 17:41:00,31.0,21.0,29.72,ENE,77,7.0,18.0,66,0.00,,,0.00,,2013-03-11 17:41:00,
2013-03-11 17:53:00,31.0,20.0,29.72,East,86,6.0,18.0,64,0.00,,,0.00,,2013-03-11 17:53:00,
2013-03-11 18:02:00,31.0,20.0,29.72,East,86,6.0,18.0,64,0.00,,,0.00,,2013-03-11 18:02:00,
2013-03-11 18:11:00,31.0,20.0,29.72,East,86,6.0,18.0,64,0.00,,,0.00,,2013-03-11 18:11:00,
2013-03-11 18:22:00,30.0,21.0,29.72,ENE,76,8.0,18.0,69,0.00,,,0.00,,2013-03-11 18:22:00,
2013-03-11 18:32:00,30.0,21.0,29.73,East,86,6.0,16.0,70,0.00,,,0.00,,2013-03-11 18:32:00,
2013-03-11 18:42:00,30.0,21.0,29.73,East,86,6.0,16.0,70,0.00,,,0.00,,2013-03-11 18:42:00,
2013-03-11 19:02:00,30.0,22.0,29.74,East,81,6.0,16.0,71,0.00,,,0.00,,2013-03-11 19:02:00,
2013-03-11 19:11:00,30.0,22.0,29.74,East,81,6.0,16.0,71,0.00,,,0.00,,2013-03-11 19:11:00,
2013-03-11 19:22:00,30.0,22.0,29.74,East,89,5.0,16.0,73,0.00,,,0.00,,2013-03-11 19:22:00,
2013-03-11 19:32:00,30.0,22.0,29.74,East,89,5.0,16.0,73,0.00,,,0.00,,2013-03-11 19:32:00,
2013-03-11 19:42:00,30.0,22.0,29.74,East,89,5.0,16.0,73,0.00,,,0.00,,2013-03-11 19:42:00,
2013-03-11 19:52:00,30.0,22.0,29.74,East,89,5.0,16.0,73,0.00,,,0.00,,2013-03-11 19:52:00,
2013-03-11 20:02:00,30.0,22.0,29.74,East,84,7.0,19.0,72,0.00,,,0.00,,2013-03-11 20:02:00,
2013-03-11 20:12:00,30.0,22.0,29.74,East,84,7.0,19.0,72,0.00,,,0.00,,2013-03-11 20:12:00,
2013-03-11 20:22:00,29.0,21.0,29.75,East,84,6.0,18.0,73,0.00,,,0.00,,2013-03-11 20:22:00,
2013-03-11 20:32:00,29.0,22.0,29.74,East,85,7.0,22.0,74,0.00,,,0.00,,2013-03-11 20:32:00,
2013-03-11 20:42:00,29.0,22.0,29.74,East,85,7.0,22.0,74,0.00,,,0.00,,2013-03-11 20:42:00,
2013-03-11 20:52:00,29.0,22.0,29.74,East,85,7.0,22.0,74,0.00,,,0.00,,2013-03-11 20:52:00,
2013-03-11 21:02:00,29.0,21.0,29.75,East,84,7.0,20.0,73,0.00,,,0.00,,2013-03-11 21:02:00,
2013-03-11 21:11:00,29.0,21.0,29.75,East,84,7.0,20.0,73,0.00,,,0.00,,2013-03-11 21:11:00,
2013-03-11 21:22:00,29.0,21.0,29.75,East,90,6.0,17.0,73,0.00,,,0.00,,2013-03-11 21:22:00,
2013-03-11 21:32:00,29.0,21.0,29.75,East,90,6.0,17.0,73,0.00,,,0.00,,2013-03-11 21:32:00,
2013-03-11 21:43:00,29.0,21.0,29.75,East,90,6.0,17.0,73,0.00,,,0.00,,2013-03-11 21:43:00,
2013-03-11 21:52:00,29.0,22.0,29.75,East,92,6.0,15.0,75,0.00,,,0.00,,2013-03-11 21:52:00,
2013-03-11 22:02:00,29.0,22.0,29.74,East,90,5.0,15.0,74,0.00,,,0.00,,2013-03-11 22:02:00,
2013-03-11 22:12:00,29.0,22.0,29.74,East,90,5.0,15.0,74,0.00,,,0.00,,2013-03-11 22:12:00,
2013-03-11 22:21:00,28.0,21.0,29.75,East,90,6.0,19.0,75,0.00,,,0.00,,2013-03-11 22:21:00,
2013-03-11 22:32:00,28.0,21.0,29.75,East,90,6.0,19.0,75,0.00,,,0.00,,2013-03-11 22:32:00,
2013-03-11 22:42:00,28.0,21.0,29.75,East,90,6.0,19.0,75,0.00,,,0.00,,2013-03-11 22:42:00,
2013-03-11 22:53:00,28.0,21.0,29.74,East,86,6.0,17.0,76,0.00,,,0.00,,2013-03-11 22:53:00,
2013-03-11 23:01:00,28.0,22.0,29.75,East,91,5.0,18.0,77,0.00,,,0.00,,2013-03-11 23:01:00,
2013-03-11 23:12:00,28.0,22.0,29.75,East,91,5.0,18.0,77,0.00,,,0.00,,2013-03-11 23:12:00,
2013-03-11 23:21:00,28.0,22.0,29.75,East,91,5.0,18.0,77,0.00,,,0.00,,2013-03-11 23:21:00,
2013-03-11 23:32:00,28.0,22.0,29.74,East,98,5.0,15.0,77,0.00,,,0.00,,2013-03-11 23:32:00,
2013-03-11 23:42:00,28.0,22.0,29.74,East,98,5.0,15.0,77,0.00,,,0.00,,2013-03-11 23:42:00,
2013-03-11 23:53:00,28.0,22.0,29.75,East,91,5.0,14.0,78,0.00,,,0.00,,2013-03-11 23:53:00,